Ogdensburg, NY

1:58 AM EDT on June 22, 2018 (GMT -0400)
Ogdensburg International

Weather History for KOGS - September, 2017

Change the Weather History Date:

Wednesday, September 13, 2017

  Actual Average Record
Temperature  
Mean Temperature 66 °F -  
Max Temperature 81 °F 71 °F 88 °F (1931)
Min Temperature 52 °F 50 °F 30 °F (1963)
Cooling Degree Days 2    
Growing Degree Days 16 (Base 50)    
Moisture  
Dew Point 57 °F    
Average Humidity 80    
Maximum Humidity 97    
Minimum Humidity 46    
Precipitation  
Precipitation 0.00 in - - ()
Sea Level Pressure  
Sea Level Pressure 29.84 in    
Wind  
Wind Speed 2 mph (SSW)    
Max Wind Speed 8 mph    
Max Gust Speed -    
Visibility 10 miles    
Events      
Averages and records for this station are not official NWS values.
T = Trace of Precipitation, MM = Missing Value Source: NWS Daily Summary

Daily Weather History Graph

Daily Weather History Graph

Search for Another Location

Airport or City:

Astronomy

Sep. 13, 2017 Rise Set
Actual Time 6:38 AM EDT 7:15 PM EDT
Civil Twilight 6:09 AM EDT 7:45 PM EDT
Nautical Twilight 5:34 AM EDT 8:19 PM EDT
Astronomical Twilight 4:58 AM EDT 8:56 PM EDT
Moon No Moon Rise 2:39 PM EDT (9/13)
Length of Visible Light 13h 35m
Length of Day
12h 37m
Last Quarter, 46% of the Moon is Illuminated
Sep 13
Last Quarter
Sep 20
New
Sep 27
First Quarter
Oct 5
Full
Oct 12
Last Quarter

Hourly Weather History & Observations

Time (EDT) Temp. Heat Index Dew Point Humidity Pressure Visibility Wind Dir Wind Speed Gust Speed Precip Events Conditions
12:15 AM 55.6 °F - 54.1 °F 95% 29.89 in 10.0 mi Calm Calm - N/A   Clear
12:35 AM 55.2 °F - 53.8 °F 95% 29.89 in 10.0 mi South 3.5 mph - N/A   Clear
12:55 AM 55.9 °F - 54.7 °F 96% 29.88 in 10.0 mi South 3.5 mph - N/A   Clear
1:15 AM 55.8 °F - 54.5 °F 96% 29.88 in 10.0 mi South 3.5 mph - N/A   Clear
1:35 AM 55.4 °F - 54.1 °F 96% 29.88 in 10.0 mi Calm Calm - N/A   Clear
1:55 AM 54.5 °F - 53.6 °F 97% 29.88 in 10.0 mi Calm Calm - N/A   Clear
2:15 AM 54.5 °F - 53.6 °F 97% 29.88 in 10.0 mi Calm Calm - N/A   Clear
2:35 AM 54.5 °F - 53.6 °F 97% 29.88 in 10.0 mi Calm Calm - N/A   Clear
2:55 AM 54.3 °F - 53.2 °F 96% 29.87 in 10.0 mi South 3.5 mph - N/A   Clear
3:15 AM 54.1 °F - 53.2 °F 97% 29.87 in 10.0 mi Calm Calm - N/A   Clear
3:35 AM 53.2 °F - 52.3 °F 97% 29.88 in 10.0 mi Calm Calm - N/A   Clear
3:55 AM 53.6 °F - 52.7 °F 97% 29.88 in 10.0 mi Calm Calm - N/A   Clear
4:15 AM 53.6 °F - 52.7 °F 97% 29.88 in 10.0 mi Calm Calm - N/A   Clear
4:35 AM 52.7 °F - 51.8 °F 97% 29.88 in 10.0 mi Calm Calm - N/A   Clear
4:55 AM 52.7 °F - 51.8 °F 97% 29.88 in 10.0 mi Calm Calm - N/A   Clear
5:15 AM 52.2 °F - 51.4 °F 97% 29.89 in 10.0 mi Calm Calm - N/A   Clear
5:35 AM 52.5 °F - 51.8 °F 97% 29.89 in 10.0 mi SSW 3.5 mph - N/A   Clear
5:55 AM 52.3 °F - 51.4 °F 97% 29.89 in 10.0 mi Calm Calm - N/A   Clear
6:15 AM 52.2 °F - 51.4 °F 97% 29.90 in 10.0 mi Calm Calm - N/A   Clear
6:35 AM 52.0 °F - 51.1 °F 97% 29.90 in 10.0 mi South 3.5 mph - N/A   Clear
6:55 AM 52.0 °F - 51.1 °F 97% 29.91 in 10.0 mi SSW 3.5 mph - N/A   Scattered Clouds
7:15 AM 52.5 °F - 51.8 °F 97% 29.91 in 10.0 mi South 3.5 mph - N/A   Scattered Clouds
7:35 AM 53.8 °F - 53.1 °F 97% 29.91 in 10.0 mi South 3.5 mph - N/A   Mostly Cloudy
7:55 AM 55.0 °F - 54.1 °F 97% 29.91 in 10.0 mi Calm Calm - N/A   Scattered Clouds
8:15 AM 57.2 °F - 55.9 °F 96% 29.90 in 10.0 mi South 3.5 mph - N/A   Clear
8:35 AM 59.0 °F - 56.8 °F 93% 29.90 in 10.0 mi South 3.5 mph - N/A   Clear
8:55 AM 62.1 °F - 57.2 °F 84% 29.90 in 10.0 mi SSW 4.6 mph - N/A   Clear
9:15 AM 64.6 °F - 58.5 °F 80% 29.89 in 10.0 mi South 3.5 mph - N/A   Clear
9:35 AM 66.6 °F - 58.5 °F 75% 29.89 in 10.0 mi SSW 4.6 mph - N/A   Clear
9:55 AM 67.8 °F - 59.4 °F 74% 29.89 in 10.0 mi South 5.8 mph - N/A   Clear
10:15 AM 68.9 °F - 59.9 °F 73% 29.89 in 10.0 mi SW 4.6 mph - N/A   Clear
10:35 AM 70.5 °F - 61.0 °F 72% 29.88 in 10.0 mi SSW 6.9 mph - N/A   Clear
10:55 AM 72.0 °F - 60.8 °F 68% 29.87 in 10.0 mi SSW 5.8 mph - N/A   Clear
11:15 AM 72.7 °F - 60.3 °F 65% 29.87 in 10.0 mi SSW 5.8 mph - N/A   Clear
11:35 AM 74.1 °F - 60.3 °F 62% 29.87 in 10.0 mi SSW 5.8 mph - N/A   Clear
11:55 AM 75.4 °F - 60.3 °F 59% 29.86 in 10.0 mi SW 3.5 mph - N/A   Clear
12:15 PM 77.0 °F - 60.3 °F 56% 29.86 in 10.0 mi SW 3.5 mph - N/A   Clear
12:35 PM 77.9 °F - 60.8 °F 56% 29.85 in 10.0 mi SSW 4.6 mph - N/A   Clear
12:55 PM 78.3 °F - 60.6 °F 54% 29.84 in 10.0 mi Calm Calm - N/A   Clear
1:15 PM 79.0 °F - 59.2 °F 51% 29.84 in 10.0 mi SW 5.8 mph - N/A   Clear
1:35 PM 80.4 °F 81.1 °F 59.7 °F 49% 29.83 in 10.0 mi South 5.8 mph - N/A   Clear
1:55 PM 80.1 °F 80.6 °F 58.3 °F 47% 29.82 in 10.0 mi SSW 8.1 mph - N/A   Clear
2:15 PM 79.9 °F - 57.9 °F 47% 29.82 in 10.0 mi South 6.9 mph - N/A   Clear
2:35 PM 80.2 °F 81.0 °F 59.9 °F 50% 29.81 in 10.0 mi SW 4.6 mph - N/A   Clear
2:55 PM 79.7 °F - 60.3 °F 51% 29.80 in 10.0 mi SW 5.8 mph - N/A   Clear
3:15 PM 81.1 °F 81.8 °F 60.1 °F 49% 29.80 in 10.0 mi SSW 4.6 mph - N/A   Clear
3:35 PM 80.8 °F 81.5 °F 60.6 °F 50% 29.79 in 10.0 mi West 4.6 mph - N/A   Clear
3:55 PM 80.4 °F 81.2 °F 60.3 °F 50% 29.79 in 10.0 mi West 4.6 mph - N/A   Clear
4:15 PM 80.6 °F 81.2 °F 59.9 °F 49% 29.79 in 10.0 mi WSW 3.5 mph - N/A   Clear
4:35 PM 79.9 °F - 60.1 °F 51% 29.79 in 10.0 mi WSW 4.6 mph - N/A   Clear
4:55 PM 78.8 °F - 60.3 °F 53% 29.79 in 10.0 mi WSW 3.5 mph - N/A   Clear
5:15 PM 78.8 °F - 56.1 °F 46% 29.78 in 10.0 mi WSW 4.6 mph - N/A   Clear
5:35 PM 74.3 °F - 56.8 °F 54% 29.79 in 10.0 mi WSW 3.5 mph - N/A   Clear
5:55 PM 73.0 °F - 58.6 °F 61% 29.79 in 10.0 mi SW 3.5 mph - N/A   Clear
6:15 PM 71.8 °F - 60.8 °F 68% 29.79 in 10.0 mi SW 3.5 mph - N/A   Clear
6:35 PM 69.8 °F - 61.0 °F 73% 29.79 in 10.0 mi Calm Calm - N/A   Clear
6:55 PM 68.2 °F - 61.0 °F 78% 29.79 in 10.0 mi Calm Calm - N/A   Clear
7:15 PM 65.7 °F - 60.1 °F 82% 29.79 in 10.0 mi Calm Calm - N/A   Clear
7:35 PM 64.4 °F - 60.3 °F 86% 29.80 in 10.0 mi Calm Calm - N/A   Clear
7:55 PM 63.1 °F - 59.4 °F 87% 29.81 in 10.0 mi Calm Calm - N/A   Clear
8:15 PM 61.7 °F - 58.5 °F 89% 29.81 in 10.0 mi Calm Calm - N/A   Clear
8:35 PM 61.7 °F - 59.0 °F 91% 29.80 in 10.0 mi Calm Calm - N/A   Clear
8:55 PM 61.9 °F - 59.4 °F 91% 29.79 in 10.0 mi Calm Calm - N/A   Clear
9:15 PM 61.7 °F - 59.5 °F 93% 29.79 in 10.0 mi Calm Calm - N/A   Clear
9:35 PM 61.7 °F - 59.5 °F 93% 29.79 in 10.0 mi Calm Calm - N/A   Clear
9:55 PM 61.0 °F - 59.0 °F 93% 29.79 in 10.0 mi Calm Calm - N/A   Clear
10:15 PM 59.7 °F - 57.7 °F 93% 29.79 in 10.0 mi Calm Calm - N/A   Clear
10:35 PM 59.5 °F - 57.7 °F 94% 29.79 in 5.0 mi Calm Calm - N/A   Clear
10:55 PM 60.1 °F - 58.6 °F 95% 29.78 in 10.0 mi Calm Calm - N/A   Scattered Clouds
11:15 PM 61.9 °F - 60.4 °F 95% 29.79 in 10.0 mi South 3.5 mph - N/A   Scattered Clouds
11:35 PM 62.6 °F - 60.8 °F 94% 29.79 in 10.0 mi South 3.5 mph - N/A   Clear
11:55 PM 62.6 °F - 60.4 °F 93% 29.80 in 10.0 mi Calm Calm - N/A   Clear